www.pogodaiklimat.ru

Погода и климат >> Архив погоды >> Германия >> Бремен


АРХИВ ПОГОДЫ в Бремене

Время (UTC), дата Ветер
(напр.,м/с)
 
Видим.   Явления Облачность Т
(С)
Тd
(С)
f
(%)
Тe
(С)
Тes
(С)
Комфортность P
(гПа)
Po
(гПа)
Тmin
(С)
Tmax
(С)
R
(мм)
R24
(мм)
S
(см)
07 19.06 ЮВ 2 25 км 6/0
[Ac trans Ci sp]
+22.7 +16.5 68 +27 +32 душно 1008.3 1007.7
08 19.06 Ю 3 30 км 6/0
[Ac cast Ci sp]
+26.5 +16.7 55 +30 +36 душно 1007.9 1007.3
09 19.06 Ю 4 30 км 5/0
[Ac trans Ci sp]
+27.8 +14.4 44 +30 +38 жарко 1007.4 1006.8
10 19.06 Ю 5 30 км 5/1 1500 м
[Cu hum Ac trans Ci sp]
+29.4 +14.5 40 +31 +37 жарко 1007.2 1006.6
11 19.06 Ю 6 30 км 5/1 1500 м
[Cb cap Ci sp]
+30.4 +13.3 35 +32 +37 жарко 1007.0 1006.4
12 19.06 ЮЗ 6 35 км 5/4 1500 м
[Cu med, cong Ci fib]
+30.1 +13.2 36 +32 +35 жарко 1006.9 1006.3
13 19.06 Ю 3 35 км гроза без осадков {ливн. осадки} 8/5 1500 м
[Cb cap Ci sp]
+25.0 +16.3 58 +28 +34 жарко 1006.9 1006.3
14 19.06 СЗ 3 35 км в посл. час гроза {ливн. осадки} 9/4 1500 м
[Cb cap Ac trans Ci sp]
+27.9 +14.7 44 +30 +34 жарко 1006.0 1005.4
15 19.06 Ю 1 35 км гроза без осадков {ливн. осадки} 9/4 1500 м
[Cb cap Ac As Ci sp]
+26.8 +19.3 63 +32 +36 очень
душно
1005.7 1005.1 0.4
16 19.06 ЮЗ 4 35 км гроза без осадков 9/4 1500 м
[Cb cap Ac As Ci sp]
+24.6 +15.8 58 +28 +29 душно 1006.7 1006.1
17 19.06 СЗ 1 40 км 9/1 1500 м
[Cu med, cong Ac As Ci fib]
+23.4 +16.0 63 +28 +30 душно 1005.8 1005.2
18 19.06 Ю 1 25 км {гроза, ливн. осадки} 8/0
[Ac trans Ci fib]
+24.9 +15.8 57 +28 +29 жарко 1006.3 1005.7 +19.9 +31.0
19 19.06 СЗ 3-3
{4}
22 км 4/0
[Ac trans Ci fib]
+23.2 +16.9 68 +28 +28 душно 1006.1 1005.5
20 19.06 СЗ 1 16 км 8/1 1320 м
[Cu med, cong Ac trans Ci fib]
+21.5 +17.1 76 +25 +25 комфорт 1006.7 1006.1
21 19.06 З 4 8000 м гроза, ливневой дождь 9/9 1440 м
[Cb cap]
+16.4 +15.6 95 +16 +16 тепло 1008.6 1008.0 8
22 19.06 В 2 22 км в посл. час гроза {ливн. осадки} 9/3 1020 м
[Cb cap Ac As]
+16.4 +15.9 97 +16 +16 тепло 1007.7 1007.1
23 19.06 ЮВ 2 22 км в посл. час ливневой дождь 9/1 1000 м
[Cu med, cong Ac As]
+16.6 +16.1 97 +17 +17 тепло 1007.6 1007.0
00 20.06 ЮВ 4 н/о н/о +16.2 +15.4 95 +15 +15 тепло 1007.7 1007.1 1
01 20.06 ЮВ 2-3
{7}
22 км 9/0
[Ac trans]
+15.6 +15.0 96 +15 +15 тепло 1007.3 1006.7
02 20.06 Ю 2 22 км 9/0
[As op Ci fib]
+15.2 +14.8 97 +15 +15 тепло 1007.6 1007.0
03 20.06 Ю 2 22 км местами туман поземный 4/0
[Ac trans Ci fib]
+14.9 +14.7 99 +15 +15 тепло 1007.7 1007.1
04 20.06 Ю 3 6000 м дымка 8/0
[Ac trans Ci fib]
+15.2 +14.8 97 +14 +15 тепло 1007.8 1007.2
05 20.06 ЮЗ 3 4800 м дымка 9/9 240 м
[St]
+16.3 +15.6 96 +16 +16 тепло 1008.3 1007.7
06 20.06 ЮЗ 3 6000 м дымка 9/9 200 м
[Sc]
+17.0 +16.1 94 +17 +17 тепло 1009.0 1008.4 +14.7 +24.7 9
07 20.06 З 4 7000 м дымка 10/10 300 м
[Sc]
+17.6 +16.1 91 +17 +17 тепло 1009.1 1008.5
08 20.06 З 6 10 км 9/9 400 м
[Cu Sc]
+18.0 +15.3 84 +17 +18 тепло 1009.9 1009.3
09 20.06 ЮЗ 6 15 км 9/9 570 м
[Cu Sc]
+19.1 +14.7 76 +20 +20 тепло 1010.2 1009.6
10 20.06 З 7 20 км 9/9 660 м
[Cu Sc]
+19.6 +14.3 71 +21 +21 комфорт 1010.7 1010.1
11 20.06 З 6 25 км 9/9 750 м
[Cu Sc]
+21.0 +14.4 66 +24 +25 комфорт 1010.9 1010.3
12 20.06 З 5 25 км 8/8 900 м
[Cu Sc]
+21.1 +14.1 64 +24 +25 комфорт 1011.0 1010.4
13 20.06 ЮЗ 5-7
{9}
25 км 6/4 960 м
[Cu med, cong Ac trans]
+22.3 +14.2 60 +26 +29 жарко 1010.8 1010.2
14 20.06 ЮЗ 5 25 км 9/5 960 м
[Cb cap Ac trans]
+22.4 +14.3 60 +26 +27 жарко 1010.8 1010.2
15 20.06 СЗ 6 25 км слаб. ливневой дождь 8/8 540 м
[Cb cap]
+19.0 +15.6 81 +20 +21 тепло 1011.2 1010.6 0.0
16 20.06 СЗ 4 25 км в посл. час ливневой дождь 5/1 900 м
[Cb cap Ac trans]
+21.4 +15.3 68 +25 +27 комфорт 1011.1 1010.5
17 20.06 З 3 20 км 8/1 900 м
[Cu Sc Ac trans Ci fib]
+22.2 +14.9 63 +26 +27 душно 1011.0 1010.4
18 20.06 ЮЗ 3 30 км {ливн. осадки} 9/1 600 м
[Cu med, cong Ac trans Ci fib]
+20.7 +13.6 64 +24 +24 комфорт 1011.2 1010.6 +17.0 +23.4 0.0
19 20.06 СЗ 6 25 км слаб. ливневой дождь 9/9 840 м
[Cu Sc]
+18.1 +14.8 81 +18 +18 тепло 1012.2 1011.6
20 20.06 СЗ 3 12 км слаб. ливневой дождь 9/9 960 м
[Cu Sc]
+17.1 +15.3 89 +17 +17 тепло 1013.3 1012.7
21 20.06 СЗ 4 18 км {ливн. осадки} 9/9 420 м
[Cu Sc]
+16.9 +14.8 87 +16 +16 тепло 1014.1 1013.5 1
22 20.06 СЗ 3 30 км в посл. час ливневой дождь 9/9 450 м
[Cu Sc]
+15.9 +13.4 85 +15 +15 тепло 1014.8 1014.2
23 20.06 СЗ 2-3
{5}
30 км 9/0
[Ac trans]
+15.6 +13.0 85 +15 +15 тепло 1015.0 1014.4
00 21.06 СЗ 2 30 км {ливн. осадки} 9/0
[Ac trans]
+15.4 +12.3 82 +15 +15 тепло 1015.1 1014.5 1
01 21.06 З 2-2
{3}
15 км 6/0
[Ac trans]
+13.3 +12.6 96 +12 +12 тепло 1015.6 1015.0
02 21.06 З 1-1
{2}
15 км местами туман поземный 6/0
[Ac trans Ci fib]
+13.1 +12.7 97 +13 +13 тепло 1015.8 1015.2
03 21.06 ЮЗ 1 500 м туман 3/1 1020 м
[Sc Ac trans Ci fib]
+12.2 +12.1 99 +12 +12 по сезону 1016.0 1015.4
04 21.06 Ю 1-1
{2}
1000 м туман местами 8/6 900 м
[Sc Ac trans Ci fib]
+12.7 +12.6 99 +13 +13 тепло 1016.3 1015.7
05 21.06 ЮЗ 2 8000 м в посл. час ливневой дождь 8/8 750 м
[Cu Sc Ci fib]
+13.9 +13.5 97 +13 +14 по сезону 1016.5 1015.9
06 21.06 ЮЗ 3 15 км {ливн. осадки, туман} 4/1 300 м
[Sc Ci fib]
+15.4 +13.4 88 +15 +17 тепло 1016.8 1016.2 +11.7 +20.7 1
07 21.06 ЮЗ 4-5
{6}
20 км 4/3 500 м
[Cu hum Ci fib]
+17.2 +12.9 76 +17 +20 тепло 1017.1 1016.5
08 21.06 ЮЗ 5-7
{7}
25 км 4/4 800 м
[Cu hum]
+17.7 +11.7 68 +17 +20 тепло 1017.5 1016.9
09 21.06 ЮЗ 3 30 км 5/5 900 м
[Cu med, cong]
+18.5 +10.6 60 +19 +25 тепло 1017.8 1017.2
10 21.06 ЮЗ 5-7
{8}
30 км 5/5 1140 м
[Cu med, cong]
+20.3 +10.9 55 +22 +26 комфорт 1017.9 1017.3
11 21.06 ЮЗ 4 30 км 8/5 1320 м
[Cu med, cong Ac trans]
+20.1 +10.2 53 +22 +25 комфорт 1018.0 1017.4
12 21.06 З 4 35 км 9/5 1350 м
[Cu med, cong Ac trans]
+20.1 +10.0 52 +22 +24 комфорт 1018.1 1017.5
13 21.06 З 3 35 км 6/3 1350 м
[Cu med, cong Ac trans]
+21.4 +11.1 52 +23 +30 комфорт 1018.2 1017.6
14 21.06 ЮЗ 5 40 км 9/6 1500 м
[Cu med, cong Ac trans]
+21.0 +10.1 50 +23 +24 комфорт 1018.2 1017.6
15 21.06 С 6 40 км 9/3 1500 м
[Cu med, cong Ac trans]
+19.2 +11.4 61 +20 +21 тепло 1018.8 1018.2
16 21.06 СЗ 4 40 км 5/1 1500 м
[Cu med, cong Ac trans]
+19.2 +11.0 59 +20 +23 тепло 1019.1 1018.5
17 21.06 С 4 40 км 8/1 1200 м
[Cu med, cong Ac trans]
+18.2 +10.7 62 +18 +19 тепло 1019.4 1018.8
18 21.06 С 4 35 км 9/8 1500 м
[Cu Sc Ci fib]
+18.1 +10.7 62 +18 +18 по сезону 1019.9 1019.3 +15.4 +22.3
19 21.06 С 5-7
{7}
35 км 1/1 750 м
[Cu Sc Ci fib]
+17.3 +9.2 59 +17 +17 тепло 1020.4 1019.8
20 21.06 С 3-5
{6}
40 км 9/9 1500 м
[Sc]
+16.8 +9.5 62 +17 +17 тепло 1021.2 1020.6
21 21.06 С 3 40 км 6/3 1500 м
[Sc Ci fib]
+15.5 +9.3 67 +15 +15 по сезону 1021.8 1021.2
22 21.06 С 3-4
{4}
40 км 8/6 1500 м
[Sc Ci fib]
+15.9 +9.6 66 +15 +15 тепло 1022.3 1021.7
23 21.06 СВ 1-2
{4}
40 км 3/1 1500 м
[Sc Ci fib]
+13.6 +9.9 78 +14 +14 тепло 1022.8 1022.2
00 22.06 ЮВ 1 35 км 4/1 1500 м
[Sc Ci fib]
+11.7 +10.1 90 +11 +11 по сезону 1023.1 1022.5
01 22.06 В 1-1
{1}
35 км местами туман поземный ясно +11.1 +10.4 95 +11 +11 тепло 1023.4 1022.8
02 22.06 В 1-2
{2}
35 км местами туман поземный 1/0
[Ci fib]
+10.7 +10.5 99 +10 +10 по сезону 1023.5 1022.9
03 22.06 СВ 1 35 км 1/0
[Ci fib]
+11.9 +9.7 86 +12 +12 по сезону 1023.7 1023.1
04 22.06 ЮВ 1-1
{3}
35 км местами туман поземный 1/0
[Ci fib]
+10.0 +9.3 95 +9 +10 по сезону 1023.9 1023.3
05 22.06 СВ 2-3
{3}
30 км 1/0
[Ci fib]
+13.3 +9.9 80 +13 +14 по сезону 1024.0 1023.4
06 22.06 СВ 3 25 км 1/0
[Ci fib]
+15.0 +10.1 72 +14 +17 по сезону 1024.1 1023.5 +8.7 +18.2
07 22.06 СВ 4-5
{6}
30 км 1/1 720 м
[Cu hum Ci fib]
+16.2 +10.1 67 +16 +19 тепло 1024.3 1023.7
08 22.06 СВ 4-6
{6}
30 км 1/1 960 м
[Cu hum Ci fib]
+17.2 +8.8 58 +17 +23 тепло 1024.5 1023.9
09 22.06 В 4 30 км 1/1 1080 м
[Cu hum Ci fib]
+18.7 +8.3 51 +19 +27 тепло 1024.3 1023.7
10 22.06 С 3-6
{6}
30 км 1/1 1200 м
[Cu hum Ac trans Ci fib]
+20.1 +9.6 51 +22 +33 комфорт 1024.0 1023.4
11 22.06 В 3-6
{7}
30 км 3/3 1320 м
[Cu hum Ac trans]
+20.8 +9.6 49 +23 +33 комфорт 1023.9 1023.3
12 22.06 СВ 3 30 км 3/3 1440 м
[Cu med, cong Ci fib]
+20.4 +8.8 47 +22 +32 комфорт 1023.4 1022.8
13 22.06 СВ 4-7
{7}
30 км 4/4 1500 м
[Cu med, cong]
+22.1 +9.3 44 +24 +30 комфорт 1022.7 1022.1
14 22.06 СВ 3-6
{7}
30 км 6/5 1500 м
[Cu med, cong Ci fib]
+21.6 +9.6 46 +23 +28 комфорт 1022.3 1021.7
15 22.06 СВ 4 30 км 8/3 1500 м
[Cu med, cong Ci fib]
+22.2 +9.9 46 +24 +28 комфорт 1021.7 1021.1
16 22.06 СВ 5 30 км 9/5 1500 м
[Cu med, cong Ci fib]
+22.0 +9.7 46 +24 +25 комфорт 1021.5 1020.9
17 22.06 СВ 5 30 км 9/3 1500 м
[Cu med, cong Ci fib]
+22.3 +9.6 44 +24 +25 комфорт 1021.1 1020.5
18 22.06 СВ 5 40 км 5/3 1500 м
[Cu hum Ci fib]
+21.9 +10.4 48 +24 +24 комфорт 1021.0 1020.4 +15.1 +23.4
19 22.06 СВ 5 40 км 8/3 1500 м
[Sc Ac trans Ci fib]
+20.8 +10.3 51 +23 +23 комфорт 1021.2 1020.6
20 22.06 СВ 5 40 км 5/0
[Ac trans Ci fib]
+19.2 +10.6 57 +20 +20 тепло 1021.2 1020.6
21 22.06 СВ 5 40 км 4/0
[Ac trans Ci fib]
+18.2 +11.6 65 +18 +18 тепло 1021.7 1021.1
22 22.06 В 5-8
{8}
40 км 4/0
[Ci fib]
+17.1 +11.0 67 +16 +16 тепло 1022.1 1021.5
23 22.06 СВ 5-7
{8}
40 км 3/0
[Ci fib]
+15.9 +10.1 68 +15 +15 тепло 1022.3 1021.7
00 23.06 СВ 4 40 км 4/1 1500 м
[Sc Ci fib]
+14.9 +9.5 70 +14 +14 тепло 1022.3 1021.7
01 23.06 СВ 4-5
{7}
40 км 5/4 1500 м
[Sc Ci fib]
+14.4 +9.5 72 +13 +13 тепло 1022.3 1021.7
02 23.06 В 4 40 км 5/3 1500 м
[Sc Ci fib]
+13.4 +9.8 79 +12 +12 по сезону 1022.2 1021.6
03 23.06 СВ 4 40 км 8/3 1500 м
[Sc Ci fib]
+13.5 +10.2 80 +12 +12 по сезону 1022.4 1021.8
04 23.06 СВ 4 30 км 8/3 1500 м
[Sc Ac trans Ci fib]
+13.7 +10.8 83 +12 +12 по сезону 1022.3 1021.7
05 23.06 В 4 30 км 8/5 1500 м
[Sc Ac trans Ci fib]
+14.8 +11.1 78 +14 +14 тепло 1022.3 1021.7
06 23.06 В 4 45 км 8/4 1500 м
[Sc Ac trans Ci sp]
+16.7 +11.3 70 +16 +17 тепло 1022.4 1021.8 +13.2 +21.9
07 23.06 В 4-6
{7}
45 км 5/0
[Ac trans Ci fib]
+18.0 +11.1 64 +18 +21 тепло 1022.4 1021.8
08 23.06 В 5-7
{8}
45 км 3/0
[Ac trans]
+20.0 +11.5 58 +21 +26 комфорт 1022.3 1021.7
09 23.06 В 4 45 км 1/0
[Ac trans]
+21.7 +12.0 54 +24 +32 комфорт 1022.2 1021.6
10 23.06 В 4-6
{8}
45 км 3/0
[Ac trans]
+22.8 +12.0 51 +25 +34 комфорт 1022.2 1021.6
11 23.06 В 5-7
{7}
45 км 1/0
[Ac trans]
+24.6 +11.7 44 +26 +34 жарко 1021.9 1021.3
12 23.06 В 5 45 км 3/1 1500 м
[Cu hum Ac trans]
+26.7 +12.1 40 +28 +35 жарко 1021.7 1021.1
13 23.06 ЮВ 5-8
{9}
45 км 1/1 1500 м
[Cu hum Ac trans]
+27.1 +11.1 37 +28 +35 жарко 1021.4 1020.8
14 23.06 В 6-8
{9}
45 км 4/3 1500 м
[Cu hum Ci fib]
+27.7 +11.1 36 +29 +32 жарко 1021.0 1020.4
15 23.06 ЮВ 5 45 км 5/1 1500 м
[Cu hum Ci fib]
+27.5 +10.1 34 +28 +32 жарко 1020.7 1020.1
16 23.06 ЮВ 5 45 км 6/1 1500 м
[Cu hum Ci fib]
+27.7 +10.5 34 +28 +31 жарко 1020.6 1020.0
17 23.06 В 5 45 км 4/1 1500 м
[Cu hum Ci fib]
+27.2 +10.8 36 +28 +29 жарко 1020.4 1019.8
18 23.06 ЮВ 4 30 км 8/1 1500 м
[Cu hum Ci fib]
+26.5 +10.5 37 +27 +28 жарко 1020.5 1019.9 +16.4 +28.2
19 23.06 В 3 30 км 9/1 1500 м
[Cu hum Ci fib]
+24.2 +11.5 45 +26 +26 жарко 1020.6 1020.0
20 23.06 В 3-4
{5}
30 км 9/0
[Ci fib]
+21.8 +12.0 54 +24 +24 комфорт 1021.1 1020.5
21 23.06 В 4 30 км 9/0
[Ci fib]
+21.6 +11.9 54 +24 +24 комфорт 1021.5 1020.9
22 23.06 В 4-6
{6}
30 км 9/0
[Ci fib]
+20.4 +12.4 60 +23 +23 комфорт 1021.9 1021.3
23 23.06 В 4-6
{6}
30 км 9/0
[Ci fib]
+19.9 +13.2 65 +22 +22 комфорт 1022.2 1021.6
00 24.06 В 3 <100 м 9/1 300 м
[Cu hum Ac trans Ci fib]
+18.5 +12.7 69 +19 +19 тепло 1022.5 1021.9
01 24.06 В 4-6
{6}
30 км 9/0
[Ci fib]
+17.9 +12.0 68 +18 +18 тепло 1022.8 1022.2
02 24.06 В 3-6
{6}
30 км 9/0
[Ci fib]
+17.5 +11.4 67 +18 +18 тепло 1022.8 1022.2
03 24.06 В 3 30 км 9/0
[Ci fib]
+17.8 +11.2 65 +18 +18 тепло 1022.8 1022.2
04 24.06 В 4-6
{6}
30 км 9/0
[Ci fib]
+17.0 +11.2 69 +17 +17 тепло 1022.9 1022.3
05 24.06 В 4 30 км 9/0
[Ac trans Ci fib]
+18.7 +11.9 65 +19 +20 тепло 1022.9 1022.3
06 24.06 В 5 40 км 9/0
[Ac trans Ci fib]
+20.2 +12.7 62 +22 +24 комфорт 1022.8 1022.2 +16.6 +26.4
07 24.06 В 5 40 км 9/0
[Ac trans Ci fib]
+21.1 +13.1 60 +23 +26 комфорт 1022.9 1022.3
08 24.06 В 5-8
{8}
40 км 9/0
[Ci fib]
+22.7 +13.1 55 +26 +30 жарко 1022.9 1022.3
09 24.06 В 6 40 км 9/0
[Ci fib]
+25.6 +14.6 51 +28 +32 жарко 1022.7 1022.1
10 24.06 В 5-8
{8}
35 км 9/0
[Ci sp]
+26.3 +13.1 44 +28 +35 жарко 1022.5 1021.9
11 24.06 ЮВ 6-9
{10}
35 км 9/0
[Ci fib]
+27.8 +12.5 39 +29 +35 жарко 1022.1 1021.5
12 24.06 В 5 35 км 9/0
[Ci fib]
+28.5 +10.9 33 +29 +36 жарко 1021.7 1021.1
13 24.06 В 6-9
{9}
35 км 9/0
[Ci fib]
+28.7 +11.3 34 +29 +34 жарко 1021.3 1020.7
14 24.06 В 6-9
{10}
35 км 9/0
[Ci fib]
+29.5 +12.0 34 +30 +34 жарко 1020.9 1020.3
15 24.06 В 7 35 км 9/0
[Ci fib]
+29.9 +10.1 29 +30 +32 жарко 1020.6 1020.0
16 24.06 В 6-9
{10}
35 км 9/0
[Ci sp]
+29.4 +10.3 31 +30 +32 жарко 1020.6 1020.0
17 24.06 ЮВ 5-9
{9}
35 км 9/0
[Ci fib]
+29.2 +10.6 32 +30 +31 жарко 1020.5 1019.9
18 24.06 ЮВ 4 40 км 9/0
[Ci fib]
+28.2 +12.1 37 +29 +30 жарко 1020.2 1019.6 +20.1 +30.0
19 24.06 ЮВ 3-4
{7}
45 км 9/0
[Ci fib]
+26.7 +12.0 40 +28 +28 жарко 1020.3 1019.7
20 24.06 В 3-4
{4}
45 км 9/0
[Ci fib]
+25.2 +12.1 44 +27 +27 жарко 1020.5 1019.9
21 24.06 В 3 45 км 9/0
[Ci fib]
+23.4 +12.0 49 +26 +26 жарко 1020.6 1020.0
22 24.06 В 3-4
{4}
45 км 6/0
[Ci fib]
+22.7 +11.3 49 +25 +25 комфорт 1020.6 1020.0
23 24.06 В 3-5
{5}
45 км 6/0
[Ci fib]
+20.2 +11.4 57 +22 +22 комфорт 1020.7 1020.1
00 25.06 В 4 45 км 6/0
[Ci fib]
+21.7 +11.0 51 +24 +24 комфорт 1020.5 1019.9
01 25.06 В 4-6
{6}
45 км 6/0
[Ci fib]
+21.0 +11.0 53 +23 +23 комфорт 1020.2 1019.6
02 25.06 В 4-6
{6}
45 км 6/0
[Ci fib]
+20.5 +10.1 51 +22 +22 комфорт 1020.0 1019.4
03 25.06 В 4 45 км 6/0
[Ci fib]
+20.4 +9.1 48 +22 +22 комфорт 1019.8 1019.2
04 25.06 В 3 45 км 9/0
[Ci fib]
+19.6 +9.8 53 +21 +21 комфорт 1019.7 1019.1
05 25.06 ЮВ 3 40 км 9/0
[Ci fib]
+20.1 +10.2 53 +22 +23 комфорт 1019.6 1019.0
06 25.06 В 2 50 км 9/0
[Ci sp]
+21.4 +11.1 52 +23 +26 комфорт 1019.7 1019.1 +19.0 +28.3
07 25.06 ЮВ 3-5
{5}
50 км 9/0
[Ci sp]
+23.1 +12.4 51 +26 +30 жарко 1019.5 1018.9
08 25.06 В 2 50 км 9/0
[Ac trans Ci sp]
+24.9 +13.2 48 +27 +33 жарко 1019.8 1019.2
09 25.06 В 3 50 км 9/0
[Ci sp]
+26.3 +14.2 47 +29 +37 жарко 1019.6 1019.0
10 25.06 В 4-6
{6}
50 км 3/0
[Ci fib]
+29.4 +15.8 44 +32 +42 душно 1019.2 1018.6
11 25.06 ЮВ 6-9
{9}
50 км 1/0
[Ci fib]
+31.3 +15.5 38 +34 +40 душно 1018.9 1018.3
12 25.06 ЮВ 7 50 км 1/0
[Ci fib]
+32.3 +14.8 35 +34 +39 душно 1018.4 1017.8
13 25.06 ЮВ 6-9
{10}
50 км 6/0
[Ci fib]
+33.0 +14.6 33 +35 +40 душно 1018.2 1017.6
14 25.06 ЮВ 5-8
{9}
50 км 9/0
[Ci sp]
+33.2 +14.8 33 +35 +40 душно 1017.9 1017.3
15 25.06 ЮВ 5 50 км 9/0
[Ci sp]
+32.7 +15.5 36 +35 +39 душно 1017.7 1017.1
16 25.06 ЮВ 6-8
{8}
50 км 9/0
[Ci sp]
+32.5 +16.4 38 +35 +37 душно 1017.5 1016.9
17 25.06 ЮВ 5-6
{8}
50 км 9/0
[Ci sp]
+31.9 +15.8 38 +35 +36 очень
душно
1017.4 1016.8
18 25.06 ЮВ 3 50 км 9/0
[Ci sp]
+30.9 +17.1 44 +35 +36 очень
душно
1017.8 1017.2 +21.4 +33.3
19 25.06 ЮВ 3-4
{5}
40 км 9/0
[Ci fib]
+30.1 +17.3 46 +34 +34 очень
душно
1017.8 1017.2
20 25.06 ЮВ 3-5
{5}
40 км 9/0
[Ci sp]
+29.0 +17.3 49 +33 +33 очень
душно
1017.9 1017.3
21 25.06 ЮВ 2 40 км 9/0
[Ci sp]
+27.7 +17.2 53 +32 +32 очень
душно
1018.1 1017.5
22 25.06 ЮВ 1-2
{3}
40 км 5/0
[Ci sp]
+25.5 +17.4 61 +30 +30 душно 1018.2 1017.6
23 25.06 ЮВ 1-2
{2}
40 км 1/0
[Ci sp]
+25.2 +17.4 62 +29 +29 душно 1018.1 1017.5
00 26.06 ЮВ 1 40 км ясно +23.8 +17.6 68 +28 +28 душно 1018.0 1017.4
01 26.06 В 1-1
{2}
40 км 1/1 1500 м
[Sc]
+22.1 +18.4 80 +27 +27 душно 1018.0 1017.4
02 26.06 ЮЗ 1-2
{2}
40 км ясно +19.5 +17.9 90 +23 +23 комфорт 1018.2 1017.6
03 26.06 ЮЗ 2 25 км 3/3 1500 м
[Sc]
+19.7 +18.1 90 +23 +23 комфорт 1018.5 1017.9
04 26.06 З 2 20 км 5/1 1500 м
[Cu med, cong Ci fib]
+20.6 +18.1 86 +25 +25 комфорт 1019.1 1018.5
05 26.06 З 2 28 км 5/1 1500 м
[Cu med, cong Ci fib]
+23.1 +19.2 79 +29 +31 очень
душно
1019.4 1018.8
06 26.06 З 5 25 км 4/0
[Ci fib]
+25.3 +18.2 65 +30 +32 душно 1020.2 1019.6 +19.4 +31.3
07 26.06 СЗ 6-8
{9}
25 км 1/0
[Ci fib]
+24.8 +18.1 66 +29 +32 душно 1021.0 1020.4

 

Местоположение метеостанции Бремен (Германия): широта 53.05 долгота 8.80 высота над уровнем моря 3 м.

В архиве по умолчанию представлена погода в Бремене за последнюю неделю. Архивные данные за месяц целиком и за предыдущие месяцы, начиная с января 2011 года, Вы можете получить, выбрав интересующий диапазон дат из раскрывающегося списка и нажав кнопку "Ввод!".


*Определитесь, кто Вы:
робот инопланетянин человек

Внимание! Время в таблицах - всемирное. Для получения местного времени необходимо прибавить поправку, которая равна 1 ч.

Смотрите также архив погоды в соседних городах и на ближайших метеорологических станциях:

Погода в Бремерхафене (Германия) (55 км)
Погода в Бремерфёрде (Германия) (56 км)
Погода во Фризойте-Альтенойте (Германия) (60 км)
Погода в Дипхольце (Германия) (60 км)
Погода в Солтау (Германия) (69 км)
Погода в Вунсторфе (Германия) (77 км)
Погода в Бергене (Германия) (80 км)
Погода в Нордхольце (Германия) (81 км)
Погода в Бюккебурге (Германия) (88 км)
Погода в Ганновере (Германия) (88 км)

Пояснения к столбцам:

Ветер - указаны скорость ветра в м/с - средняя за 10 мин, порывы в срок и между сроками (в фигурных скобках) и направление, откуда дует ветер: С - северный, СВ - северо-восточный, В - восточный, ЮВ - юго-восточный, Ю - южный, ЮЗ - юго-западный, З - западный, СЗ - северо-западный.
Видимость - горизонтальная дальность видимости в метрах или километрах. При видимости от 1 до 10 км при отсутствии осадков обычно наблюдается дымка, при ухудшении видимости до 1 км и менее - туман. В сухую погоду видимость может ухудшаться дымом, пылью или мглою.
Явления - указаны атмосферные явления, наблюдавшиеся в срок или в последний час перед сроком; фигурными скобками обозначены явления, наблюдавшиеся между сроками (за 1-3 часа до срока); квадратными скобками обозначены град или гололедные отложения с указанием их диаметра в мм.
Облачность - указаны через наклонную черту общая и нижняя облачность в баллах и высота нижней границы облаков в метрах; квадратными скобками обозначены формы облаков: Ci - перистые, Cs - перисто-слоистые, Cc - перисто-кучевые, Ac - высококучевые, As - высокослоистые, Sc - слоисто-кучевые, Ns - слоисто-дождевые, Cu - кучевые, Cb - кучево-дождевые. Подробнее классификацию облаков см. в Атласе облаков (PDF).
T - Температура воздуха - температура, измеренная на высоте 2 м над землей.
Td - Температура точки росы - температура, при понижении до которой содержащийся в воздухе водяной пар достигнет насыщения.
f - Относительная влажность воздуха - влажноcть воздуха, измеренная на высоте 2 м над землей.
Te - Эффективная температура - температура, которую ощущает одетый по сезону человек в тени. Характеристика душности погоды. При расчете учитывается влияние влажности воздуха и скорости ветра на теплоощущения человека.
Tes - Эффективная температура на солнце - температура, которую ощущает человек, с поправкой на солнечный нагрев. Характеристика знойности погоды. Зависит от высоты солнца над горизонтом, облачности и скорости ветра. Ночью, в пасмурную погоду, а также при ветре 12 м/с и более поправка равна нулю.
P - Атмосферное давление - приведенное к уровню моря атмосферное давление.
Po - Атмосферное давление - измеренное на уровне метеостанции атмосферное давление.
Tmin - Минимальная температура - минимум температуры воздуха на высоте 2 м над землей.
Tmax - Максимальная температура - максимум температуры воздуха на высоте 2 м над землей.
R - Количество осадков - Количество выпавших осадков за период времени, мм. При наведении курсора мыши на число - период времени, за который выпало указанное количество осадков.
R24 - Количество осадков - Количество выпавших осадков за 24 часа, мм.
S - Снежный покров - Высота снежного покрова, см. При наведении курсора мыши на число - состояние снежного покрова и степень покрытия местности в баллах.